EW5549 Weather Reports


Display with metric or nautical units.
time (UTC)temp
F
wind
direction
speed
MPH
gust
MPH
rain 1hr
in
rain 24hr
in
rain mn
in
humidity
%
barometer
mb
20260507081831 53 52 0.0 0.0 0.00 0.01 0.01 75 1012.2
20260507081327 53 52 0.0 0.0 0.00 0.01 0.01 76 1012.1
20260507080824 53 52 1.0 1.0 0.00 0.01 0.01 75 1012.2
20260507080320 52 62 0.0 0.0 0.00 0.01 0.01 77 1012.0
20260507075815 52 52 2.0 2.0 0.00 0.01 0.01 78 1012.0
20260507075312 53 45 1.0 1.0 0.00 0.01 0.01 76 1012.0
20260507074809 55 67 1.0 1.0 0.00 0.01 0.01 70 1011.9
20260507074306 55 107 2.0 2.0 0.00 0.01 0.01 69 1012.0
20260507073803 55 100 2.0 2.0 0.00 0.01 0.01 68 1012.0
20260507073300 55 124 3.0 3.0 0.00 0.01 0.01 67 1011.9
20260507072757 56 142 3.0 3.0 0.00 0.01 0.01 65 1011.9
20260507072255 55 244 0.0 0.0 0.00 0.01 0.01 65 1012.1
20260507071752 56 179 1.0 1.0 0.00 0.01 0.01 66 1011.9
20260507071248 56 162 3.0 3.0 0.00 0.01 0.01 64 1012.0
20260507070745 56 216 0.0 1.0 0.00 0.01 0.01 64 1011.9
20260507070242 56 255 4.0 5.0 0.00 0.01 0.01 64 1011.9
20260507065738 55 204 4.0 6.0 0.00 0.01 0.01 66 1011.9
20260507065236 56 231 6.0 7.0 0.00 0.01 0.01 66 1011.9
20260507064733 55 229 5.0 6.0 0.00 0.01 0.01 63 1011.9
20260507064232 55 65 0.0 0.0 0.00 0.01 0.01 67 1011.9
20260507063728 56 33 2.0 2.0 0.00 0.01 0.01 65 1011.7
20260507063225 57 34 3.0 3.0 0.00 0.01 0.01 62 1011.7
20260507062722 56 42 4.0 5.0 0.00 0.01 0.01 64 1011.9
20260507062220 57 342 6.0 7.0 0.00 0.01 0.01 64 1012.0
20260507061717 58 315 6.0 8.0 0.07 0.01 0.01 61 1012.5
20260507061215 57 316 5.0 9.0 0.07 0.01 0.01 63 1012.6
20260507060713 58 294 19.0 23.0 0.00 0.00 0.00 61 1012.9
20260507060209 58 303 14.0 16.0 0.00 0.00 0.00 58 1012.6
20260507055705 60 262 10.0 11.0 0.00 0.00 0.00 59 1012.6
20260507055201 59 269 19.0 22.0 0.00 0.00 0.00 54 1012.8
20260507054657 59 300 12.0 16.0 0.00 0.00 0.00 59 1012.6
20260507054154 58 286 14.0 15.0 0.00 0.00 0.00 61 1012.5
20260507053652 59 293 12.0 15.0 0.00 0.00 0.00 58 1012.2
20260507053150 60 346 1.0 2.0 0.00 0.00 0.00 56 1012.1
20260507052648 61 294 16.0 18.0 0.00 0.00 0.00 50 1012.1
20260507052144 63 294 12.0 14.0 0.00 0.00 0.00 47 1012.0
20260507051642 63 290 11.0 15.0 0.00 0.00 0.00 45 1012.0
20260507051138 63 244 23.0 27.0 0.00 0.00 0.00 45 1012.0
20260507050635 62 261 21.0 26.0 0.00 0.00 0.00 45 1011.8
20260507050132 61 259 15.0 18.0 0.00 0.00 0.00 51 1012.1
20260507045629 61 307 22.0 25.0 0.00 0.00 0.00 51 1012.6
20260507045126 61 303 11.0 11.0 0.00 0.00 0.00 50 1012.5
20260507044622 61 285 11.0 13.0 0.00 0.00 0.00 50 1012.5
20260507044120 62 281 18.0 20.0 0.00 0.00 0.00 48 1012.0
20260507043615 62 282 20.0 24.0 0.00 0.00 0.00 48 1012.5
20260507043113 64 280 26.0 29.0 0.00 0.00 0.00 44 1012.2
20260507042609 62 259 7.0 8.0 0.00 0.00 0.00 49 1012.2
20260507042104 62 281 5.0 6.0 0.00 0.00 0.00 48 1011.9
20260507041601 62 265 5.0 5.0 0.00 0.00 0.00 47 1011.9
20260507041058 63 264 5.0 6.0 0.00 0.00 0.00 45 1011.9
20260507040555 63 276 4.0 6.0 0.00 0.00 0.00 45 1011.9
20260507040051 64 236 4.0 6.0 0.00 0.00 0.00 44 1011.9
20260507035547 64 265 6.0 6.0 0.00 0.00 0.00 44 1011.8
20260507035043 64 244 6.0 7.0 0.00 0.00 0.00 43 1011.7
20260507034540 64 255 7.0 8.0 0.00 0.00 0.00 43 1011.5
20260507034038 64 247 7.0 8.0 0.00 0.00 0.00 44 1011.6
20260507033536 64 250 7.0 8.0 0.00 0.00 0.00 44 1011.5
20260507033033 64 248 7.0 8.0 0.00 0.00 0.00 44 1011.5
20260507032530 64 240 9.0 10.0 0.00 0.00 0.00 43 1011.3
20260507032026 64 253 11.0 13.0 0.00 0.00 0.00 43 1011.1
20260507031522 64 246 9.0 10.0 0.00 0.00 0.00 43 1011.3
20260507031020 65 243 9.0 11.0 0.00 0.00 0.00 43 1011.2
20260507030516 65 248 13.0 15.0 0.00 0.00 0.00 42 1011.1
20260507030014 65 255 9.0 10.0 0.00 0.00 0.00 42 1011.0
20260507025511 65 272 10.0 11.0 0.00 0.00 0.00 41 1010.9
20260507025009 66 238 10.0 10.0 0.00 0.00 0.00 40 1010.8
20260507024506 65 257 11.0 11.0 0.00 0.00 0.00 40 1010.9
20260507024002 66 258 11.0 13.0 0.00 0.00 0.00 38 1010.9
20260507023459 66 267 7.0 9.0 0.00 0.00 0.00 38 1011.0
20260507022956 66 273 9.0 10.0 0.00 0.00 0.00 37 1010.9
20260507022453 67 280 9.0 10.0 0.00 0.00 0.00 36 1010.8
20260507021948 67 284 12.0 14.0 0.00 0.00 0.00 36 1010.8
20260507021444 66 273 12.0 15.0 0.00 0.00 0.00 36 1010.8
20260507020941 66 302 7.0 9.0 0.00 0.00 0.00 36 1010.7
20260507020438 67 306 9.0 10.0 0.00 0.00 0.00 36 1010.8
20260507015935 68 264 11.0 13.0 0.00 0.00 0.00 34 1010.8
20260507015434 68 285 9.0 11.0 0.00 0.00 0.00 34 1010.8
20260507014930 68 286 16.0 21.0 0.00 0.00 0.00 33 1011.1
20260507014427 68 289 10.0 13.0 0.00 0.00 0.00 34 1010.8
20260507013923 68 322 11.0 13.0 0.00 0.00 0.00 33 1010.7
20260507013420 69 290 13.0 15.0 0.00 0.00 0.00 33 1010.8
20260507012917 68 279 13.0 14.0 0.00 0.00 0.00 32 1010.8
20260507012413 69 277 14.0 16.0 0.00 0.00 0.00 33 1010.8
20260507011905 69 287 13.0 16.0 0.00 0.00 0.00 33 1010.7
20260507011402 69 288 15.0 20.0 0.00 0.00 0.00 32 1010.9
20260507010902 70 303 15.0 15.0 0.00 0.00 0.00 32 1010.8
20260507010357 70 275 17.0 18.0 0.00 0.00 0.00 32 1010.7
20260507005855 70 281 13.0 15.0 0.00 0.00 0.00 32 1010.8
20260507005351 70 272 14.0 17.0 0.00 0.00 0.00 32 1010.8
20260507004848 69 272 16.0 17.0 0.00 0.00 0.00 31 1010.7
20260507004345 69 271 14.0 16.0 0.00 0.00 0.00 32 1010.7
20260507003842 69 306 10.0 10.0 0.00 0.00 0.00 33 1010.7
20260507003338 70 273 15.0 17.0 0.00 0.00 0.00 31 1010.6
20260507002833 70 306 12.0 15.0 0.00 0.00 0.00 31 1010.7
20260507002329 70 332 13.0 16.0 0.00 0.00 0.00 31 1010.9
20260507001827 70 269 16.0 20.0 0.00 0.00 0.00 30 1010.7
20260507001323 71 291 16.0 17.0 0.00 0.00 0.00 31 1010.8
20260507000820 72 270 15.0 16.0 0.00 0.00 0.00 29 1010.9
20260507000315 72 292 17.0 20.0 0.00 0.00 0.00 29 1010.6
20260506235812 72 279 13.0 14.0 0.00 0.00 0.00 29 1010.8
20260506235308 72 285 21.0 24.0 0.00 0.00 0.00 28 1010.9
20260506234805 73 302 19.0 23.0 0.00 0.00 0.00 29 1010.9
20260506234302 73 278 22.0 25.0 0.00 0.00 0.00 28 1010.8
20260506233800 71 317 7.0 8.0 0.00 0.00 0.00 31 1010.9
20260506233250 71 297 12.0 15.0 0.00 0.00 0.00 31 1010.9
20260506232747 70 309 12.0 15.0 0.00 0.00 0.00 31 1010.8
20260506232242 71 297 15.0 17.0 0.00 0.00 0.00 29 1011.0
20260506231739 71 306 11.0 15.0 0.00 0.00 0.00 30 1010.9
20260506231238 71 278 12.0 16.0 0.00 0.00 0.00 29 1011.1
20260506230734 71 275 15.0 17.0 0.00 0.00 0.00 28 1011.0
20260506230231 72 283 15.0 16.0 0.00 0.00 0.00 29 1011.0
20260506225728 72 297 10.0 13.0 0.00 0.00 0.00 30 1011.2
20260506225225 71 340 14.0 17.0 0.00 0.00 0.00 29 1011.3
20260506224721 72 303 17.0 21.0 0.00 0.00 0.00 28 1011.6
20260506224218 72 286 19.0 22.0 0.00 0.00 0.00 29 1011.6
20260506223714 71 267 14.0 17.0 0.00 0.00 0.00 30 1011.6
20260506223210 71 285 21.0 24.0 0.00 0.00 0.00 29 1011.6
20260506222708 71 11 4.0 6.0 0.00 0.00 0.00 31 1011.8
20260506222203 70 85 2.0 2.0 0.00 0.00 0.00 31 1012.1
20260506221701 69 168 3.0 6.0 0.00 0.00 0.00 32 1011.9
20260506221159 68 298 7.0 9.0 0.00 0.00 0.00 31 1012.2
20260506220656 69 280 7.0 8.0 0.00 0.00 0.00 33 1012.4
20260506220150 68 47 1.0 2.0 0.00 0.00 0.00 34 1012.6
20260506215648 67 98 9.0 9.0 0.00 0.00 0.00 33 1012.6
20260506215143 66 95 8.0 9.0 0.00 0.00 0.00 35 1012.7
20260506214640 66 96 6.0 8.0 0.00 0.00 0.00 35 1012.8
20260506214137 66 70 9.0 10.0 0.00 0.00 0.00 34 1012.9
20260506213636 66 110 5.0 6.0 0.00 0.00 0.00 33 1013.0
20260506213132 66 82 4.0 5.0 0.00 0.00 0.00 35 1012.8
20260506212630 67 56 4.0 5.0 0.00 0.00 0.00 35 1013.0
20260506212124 65 89 7.0 9.0 0.00 0.00 0.00 35 1013.2
20260506211620 65 80 5.0 6.0 0.00 0.00 0.00 37 1013.2
20260506211117 65 92 5.0 8.0 0.00 0.00 0.00 36 1013.2
20260506210614 65 90 9.0 9.0 0.00 0.00 0.00 36 1013.4
20260506210110 65 88 10.0 11.0 0.00 0.00 0.00 35 1013.2
20260506205608 63 115 4.0 5.0 0.00 0.00 0.00 35 1013.6
20260506205103 63 76 8.0 9.0 0.00 0.00 0.00 36 1013.5
20260506204601 64 67 10.0 13.0 0.00 0.00 0.00 36 1013.9
20260506204057 64 79 6.0 8.0 0.00 0.00 0.00 36 1013.8
20260506203556 62 9 5.0 7.0 0.00 0.00 0.00 37 1013.9
20260506203052 62 80 11.0 13.0 0.00 0.00 0.00 35 1014.0
20260506202550 62 62 6.0 8.0 0.00 0.00 0.00 36 1014.0
20260506202046 62 73 9.0 10.0 0.00 0.00 0.00 37 1014.2
20260506201544 62 105 9.0 11.0 0.00 0.00 0.00 36 1014.2
20260506201040 61 114 7.0 8.0 0.00 0.00 0.00 37 1014.4
20260506200536 61 70 9.0 11.0 0.00 0.00 0.00 36 1014.4
20260506200033 60 103 10.0 10.0 0.00 0.00 0.00 37 1014.7
20260506195530 60 70 9.0 11.0 0.00 0.00 0.00 37 1014.8
20260506195026 60 96 10.0 15.0 0.00 0.00 0.00 37 1014.7
20260506194524 60 49 7.0 10.0 0.00 0.00 0.00 38 1014.8
20260506194020 59 93 10.0 13.0 0.00 0.00 0.00 38 1015.0
20260506193518 60 73 8.0 10.0 0.00 0.00 0.00 39 1015.4
20260506193015 58 73 7.0 9.0 0.00 0.00 0.00 38 1015.4
20260506192511 59 83 10.0 13.0 0.00 0.00 0.00 37 1015.4
20260506192007 58 97 11.0 13.0 0.00 0.00 0.00 35 1015.3
20260506191504 59 79 9.0 13.0 0.00 0.00 0.00 36 1015.5
20260506191001 58 80 9.0 10.0 0.00 0.00 0.00 37 1015.6
20260506190458 57 48 7.0 10.0 0.00 0.00 0.00 37 1015.9
20260506185954 57 96 7.0 10.0 0.00 0.00 0.00 37 1015.9
20260506185452 57 104 12.0 15.0 0.00 0.00 0.00 37 1016.1
20260506184948 57 77 9.0 13.0 0.00 0.00 0.00 36 1015.9
20260506184446 56 99 11.0 11.0 0.00 0.00 0.00 37 1016.3
20260506183943 56 88 9.0 11.0 0.00 0.00 0.00 38 1016.3
20260506183438 56 90 8.0 11.0 0.00 0.00 0.00 37 1016.7
20260506182935 55 21 9.0 11.0 0.00 0.00 0.00 36 1016.5
20260506182432 55 55 15.0 17.0 0.00 0.00 0.00 37 1016.5
20260506181930 55 92 9.0 10.0 0.00 0.00 0.00 38 1016.7
20260506181428 53 59 9.0 11.0 0.00 0.00 0.00 38 1016.8
20260506180924 53 35 6.0 8.0 0.00 0.00 0.00 41 1016.9
20260506180420 53 74 7.0 9.0 0.00 0.00 0.00 40 1017.0
20260506175917 52 85 10.0 11.0 0.00 0.00 0.00 37 1017.2
20260506175414 52 75 11.0 13.0 0.00 0.00 0.00 39 1017.4
20260506174911 52 106 5.0 7.0 0.00 0.00 0.00 42 1017.5
20260506174408 51 86 11.0 14.0 0.00 0.00 0.00 40 1017.5
20260506173906 51 60 11.0 14.0 0.00 0.00 0.00 42 1017.7
20260506173402 51 90 8.0 9.0 0.00 0.00 0.00 42 1017.6
20260506172900 51 67 11.0 13.0 0.00 0.00 0.00 44 1017.6
20260506172356 50 40 3.0 7.0 0.00 0.00 0.00 45 1017.8
20260506171853 50 51 5.0 7.0 0.00 0.00 0.00 46 1017.7
20260506171350 49 43 7.0 10.0 0.00 0.00 0.00 48 1018.0
20260506170848 50 125 9.0 9.0 0.00 0.00 0.00 43 1018.2
20260506170343 49 57 6.0 8.0 0.00 0.00 0.00 47 1018.0
20260506165838 49 100 5.0 7.0 0.00 0.00 0.00 46 1018.2
20260506165335 49 56 7.0 9.0 0.00 0.00 0.00 46 1018.3
20260506164831 49 87 8.0 9.0 0.00 0.00 0.00 44 1018.4
20260506164328 47 91 5.0 6.0 0.00 0.00 0.00 48 1018.5
20260506163825 48 39 5.0 7.0 0.00 0.00 0.00 46 1018.5
20260506163320 47 113 8.0 9.0 0.00 0.00 0.00 49 1018.7
20260506162816 47 45 3.0 5.0 0.00 0.00 0.00 51 1018.9
20260506162314 46 50 5.0 6.0 0.00 0.00 0.00 52 1018.9
20260506161811 46 73 7.0 9.0 0.00 0.00 0.00 53 1018.9
20260506161308 46 39 2.0 2.0 0.00 0.00 0.00 53 1019.2
20260506160805 45 40 1.0 2.0 0.00 0.00 0.00 55 1019.2
20260506160302 45 35 3.0 5.0 0.00 0.00 0.00 55 1019.1
20260506155801 44 104 2.0 2.0 0.00 0.00 0.00 56 1019.3
20260506155256 44 132 3.0 3.0 0.00 0.00 0.00 54 1019.3
20260506153404 43 57 2.0 2.0 0.00 0.00 0.00 58 1019.7
20260506152901 43 85 0.0 1.0 0.00 0.00 0.00 60 1019.6
20260506152358 41 170 0.0 0.0 0.00 0.00 0.00 61 1019.7
20260506151857 41 315 1.0 1.0 0.00 0.00 0.00 63 1019.8
20260506151353 41 58 3.0 3.0 0.00 0.00 0.00 63 1019.9
20260506150851 39 185 1.0 2.0 0.00 0.00 0.00 65 1020.1
20260506150347 39 185 2.0 2.0 0.00 0.00 0.00 66 1020.1
20260506145844 39 184 1.0 2.0 0.00 0.00 0.00 65 1020.1
20260506145340 38 183 2.0 2.0 0.00 0.00 0.00 67 1020.2
20260506144838 37 183 2.0 2.0 0.00 0.00 0.00 68 1020.2
20260506144334 36 198 2.0 3.0 0.00 0.00 0.00 70 1020.2
20260506143833 35 214 2.0 2.0 0.00 0.00 0.00 71 1020.3
20260506143329 36 217 0.0 1.0 0.00 0.00 0.00 71 1020.3
20260506142828 35 218 0.0 0.0 0.00 0.00 0.00 73 1020.3
20260506142325 34 224 0.0 0.0 0.00 0.00 0.00 74 1020.5
20260506141823 33 224 2.0 2.0 0.00 0.00 0.00 76 1020.7
20260506141321 33 230 2.0 2.0 0.00 0.00 0.00 76 1020.5
20260506140819 33 254 0.0 0.0 0.00 0.00 0.00 76 1020.8
20260506140315 33 254 1.0 1.0 0.00 0.00 0.00 75 1020.8
20260506135813 34 258 0.0 0.0 0.00 0.00 0.00 74 1020.8
20260506135309 33 263 0.0 0.0 0.00 0.00 0.00 76 1020.7
20260506134806 31 262 0.0 1.0 0.00 0.00 0.00 80 1020.8
20260506134302 30 263 0.0 0.0 0.00 0.00 0.00 81 1020.9
20260506133759 29 278 0.0 0.0 0.00 0.00 0.00 83 1020.7
20260506133256 29 281 0.0 1.0 0.00 0.00 0.00 83 1020.7
20260506132753 29 278 0.0 1.0 0.00 0.00 0.00 84 1020.7
20260506132250 28 280 1.0 1.0 0.00 0.00 0.00 85 1020.6
20260506131748 28 320 2.0 2.0 0.00 0.00 0.00 85 1020.7
20260506131243 28 5 1.0 1.0 0.00 0.00 0.00 85 1020.5
20260506130740 27 329 1.0 2.0 0.00 0.00 0.00 86 1020.6
20260506130237 27 347 1.0 1.0 0.00 0.00 0.00 85 1020.7
20260506125735 26 5 0.0 0.0 0.00 0.00 0.00 85 1020.5
20260506125233 26 2 0.0 0.0 0.00 0.00 0.00 84 1020.5
20260506124731 26 357 0.0 0.0 0.00 0.00 0.00 83 1020.5
20260506124229 26 2 0.0 0.0 0.00 0.00 0.00 84 1020.4
20260506123726 25 2 0.0 0.0 0.00 0.00 0.00 85 1020.4
20260506123225 24 0 0.0 0.0 0.00 0.00 0.00 86 1020.4
20260506122721 24 17 1.0 1.0 0.00 0.00 0.00 87 1020.3
20260506122218 23 42 0.0 0.0 0.00 0.00 0.00 87 1020.4
20260506121716 23 43 0.0 0.0 0.00 0.00 0.00 87 1020.4
20260506121212 23 54 0.0 0.0 0.00 0.00 0.00 87 1020.4
20260506120710 23 58 0.0 0.0 0.00 0.00 0.00 86 1020.4
20260506120208 23 44 0.0 0.0 0.00 0.00 0.00 85 1020.3
20260506115706 25 60 1.0 1.0 0.00 0.00 0.00 84 1020.4
20260506115204 25 81 0.0 0.0 0.00 0.00 0.00 84 1020.4
20260506114701 26 100 0.0 0.0 0.00 0.00 0.00 82 1020.4
20260506114158 26 148 1.0 1.0 0.00 0.00 0.00 82 1020.3
20260506113657 27 168 1.0 1.0 0.00 0.00 0.00 82 1020.4
20260506113154 26 147 1.0 1.0 0.00 0.00 0.00 82 1020.2
20260506112649 27 142 2.0 2.0 0.00 0.00 0.00 82 1020.4
20260506112148 26 142 2.0 2.0 0.00 0.00 0.00 83 1020.4
20260506111645 26 115 0.0 0.0 0.00 0.00 0.00 84 1020.3
20260506111143 26 87 1.0 1.0 0.00 0.00 0.00 84 1020.3
20260506110640 26 57 0.0 0.0 0.00 0.00 0.00 84 1020.5
20260506110137 26 56 0.0 0.0 0.00 0.00 0.00 84 1020.5
20260506105633 25 56 0.0 1.0 0.00 0.00 0.00 84 1020.5
20260506105130 26 45 1.0 1.0 0.00 0.00 0.00 83 1020.7
20260506104629 26 37 0.0 0.0 0.00 0.00 0.00 84 1020.6
20260506104126 25 51 0.0 0.0 0.00 0.00 0.00 84 1020.6
20260506103623 25 84 0.0 0.0 0.00 0.00 0.00 84 1020.7
20260506103120 26 100 1.0 2.0 0.00 0.00 0.00 85 1020.7
20260506102618 25 60 0.0 0.0 0.00 0.00 0.00 86 1020.6
20260506102115 26 74 0.0 0.0 0.00 0.00 0.00 84 1020.6
20260506101612 26 98 0.0 0.0 0.00 0.00 0.00 84 1020.5
20260506101108 26 98 0.0 0.0 0.00 0.00 0.00 85 1020.8
20260506100607 26 98 1.0 1.0 0.00 0.00 0.00 84 1020.5
20260506100105 26 359 2.0 2.0 0.00 0.00 0.00 85 1020.8
20260506095604 26 20 0.0 0.0 0.00 0.00 0.00 84 1020.8
20260506095100 26 45 0.0 0.0 0.00 0.00 0.00 82 1020.9
20260506094557 27 86 0.0 0.0 0.00 0.00 0.00 81 1020.7
20260506094055 27 104 1.0 1.0 0.00 0.00 0.00 83 1020.7
20260506093553 27 104 1.0 1.0 0.00 0.00 0.00 83 1020.7
20260506093051 28 158 1.0 1.0 0.00 0.00 0.00 83 1020.7
20260506092548 27 158 1.0 1.0 0.00 0.00 0.00 83 1020.8
20260506092045 27 158 2.0 2.0 0.00 0.00 0.00 83 1020.9
20260506091543 27 79 0.0 0.0 0.00 0.00 0.00 83 1020.8
20260506091039 27 79 0.0 0.0 0.00 0.00 0.00 82 1020.9
20260506090538 27 79 0.0 0.0 0.00 0.00 0.00 84 1020.9
20260506090034 26 78 1.0 1.0 0.00 0.00 0.00 85 1020.7
20260506085531 27 78 0.0 0.0 0.00 0.00 0.00 84 1020.8
20260506085027 28 78 0.0 0.0 0.00 0.00 0.00 82 1021.1
20260506084525 28 97 0.0 0.0 0.00 0.00 0.00 82 1021.1
20260506084020 28 97 1.0 1.0 0.00 0.00 0.00 83 1021.1
20260506083517 27 98 2.0 2.0 0.00 0.00 0.00 84 1021.2
20260506083015 27 67 1.0 1.0 0.00 0.00 0.00 84 1020.9
20260506082512 27 97 0.0 0.0 0.00 0.00 0.00 82 1021.3